Location: Stuttgart
(48.8069°N, 9.1544°E)
Time: 04:18:48
(UTC+02:00)

ISS - Pass Details

Date: 13 May 2021
Orbit: 417 x 422 km, 51.6° (Epoch: 15 June)

Event Time Altitude Azimuth Distance (km) Brightness Sun altitude
Exits shadow 03:36:58 - 289° (WNW) 2,080 -0.4 -16.2°
Reaches altitude 10° 03:38:22 10° 291° (WNW) 1,509 -1.1 -16.0°
Maximum altitude 03:41:45 69° 16° (NNE) 455 -3.5 -15.7°
Drops below altitude 10° 03:45:08 10° 100° (E) 1,508 -0.6 -15.4°
Sets 03:47:14 0° 103° (ESE) 2,371 0.4 -15.2°
